Simultaneous Nadir Overpasses (SNOs) Predictions

Prediction of SNOs between LANDSAT-8 and METOP-B Satellite Orbit:

Table of predicted SNOs for the next 14.0 days since TLE Epoch: 1/5/2025
Index Date (LANDSAT-8) Time (LANDSAT-8) Lat,Lon (LANDSAT-8) SZA (LANDSAT-8 ) Date (METOP-B) Time (METOP-B) Lat,Lon (METOP-B) SZA (METOP-B ) Distance(km) Time Diff (sec)
1 01/07/2025 00:00:06 -81.43, 45.14 73.99 01/06/2025 23:59:27 -81.43, 45.29 73.99 2.49 39
2 01/07/2025 00:49:32 81.43,-147.09 106.03 01/07/2025 00:50:07 81.43,-147.01 106.05 1.23 35
3 01/09/2025 19:34:22 -81.43, 111.59 74.41 01/09/2025 19:34:04 -81.43, 111.77 74.39 3.00 18
4 01/09/2025 20:23:48 81.43, -80.67 105.61 01/09/2025 20:24:44 81.43, -80.58 105.64 1.56 56
5 01/12/2025 14:19:09 81.42, 10.29 105.12 01/12/2025 14:18:00 81.42, 10.22 105.09 1.19 69
6
